TimeCDT,TemperatureF,Dew PointF,Humidity,Sea Level PressureIn,VisibilityMPH,Wind Direction,Wind SpeedMPH,Gust SpeedMPH,PrecipitationIn,Events,Conditions,WindDirDegrees,DateUTC
12:52 AM,37.9,30.0,73,30.17,-9999.0,Calm,Calm,-,N/A,,Unknown,0,2012-11-03 05:52:00
1:52 AM,37.0,28.9,73,30.17,-9999.0,Calm,Calm,-,N/A,,Unknown,0,2012-11-03 06:52:00
2:52 AM,37.9,28.9,70,30.17,-9999.0,Calm,Calm,-,N/A,,Unknown,0,2012-11-03 07:52:00
3:52 AM,39.0,30.9,73,30.17,-9999.0,NNW,3.5,-,N/A,,Unknown,330,2012-11-03 08:52:00
4:52 AM,39.0,30.9,73,30.17,-9999.0,North,4.6,-,N/A,,Unknown,360,2012-11-03 09:52:00
5:52 AM,39.9,32.0,73,30.18,-9999.0,West,4.6,-,N/A,,Unknown,260,2012-11-03 10:52:00
6:52 AM,39.9,32.0,73,30.19,-9999.0,West,3.5,-,N/A,,Unknown,270,2012-11-03 11:52:00
7:52 AM,39.0,32.0,76,30.20,-9999.0,West,6.9,-,N/A,,Unknown,260,2012-11-03 12:52:00
8:52 AM,39.0,32.0,76,30.22,-9999.0,West,9.2,-,N/A,,Unknown,260,2012-11-03 13:52:00
9:52 AM,39.0,32.0,76,30.24,-9999.0,West,10.4,-,N/A,,Unknown,270,2012-11-03 14:52:00
10:52 AM,42.1,34.0,73,30.24,-9999.0,West,10.4,-,N/A,,Unknown,280,2012-11-03 15:52:00
11:52 AM,44.1,35.1,71,30.24,-9999.0,NNW,10.4,-,N/A,,Unknown,330,2012-11-03 16:52:00
12:52 PM,45.0,34.0,65,30.23,-9999.0,NW,9.2,-,N/A,,Unknown,320,2012-11-03 17:52:00
1:52 PM,46.0,33.1,61,30.22,-9999.0,NW,6.9,-,N/A,,Unknown,320,2012-11-03 18:52:00
2:52 PM,46.9,34.0,61,30.20,-9999.0,NNW,8.1,-,N/A,,Unknown,330,2012-11-03 19:52:00
3:52 PM,48.9,34.0,56,30.18,-9999.0,NNW,6.9,-,N/A,,Unknown,340,2012-11-03 20:52:00
4:52 PM,46.9,34.0,61,30.19,-9999.0,North,-9999.0,-,N/A,,Unknown,0,2012-11-03 21:52:00
5:52 PM,48.9,34.0,56,30.19,-9999.0,North,4.6,-,N/A,,Unknown,350,2012-11-03 22:52:00
6:52 PM,44.1,33.1,65,30.20,-9999.0,NNE,4.6,-,N/A,,Unknown,30,2012-11-03 23:52:00
7:52 PM,41.0,33.1,73,30.22,-9999.0,NNE,5.8,-,N/A,,Unknown,20,2012-11-04 00:52:00
8:52 PM,39.0,32.0,76,30.22,-9999.0,NE,6.9,-,N/A,,Unknown,40,2012-11-04 01:52:00
9:52 PM,39.0,30.0,70,30.23,-9999.0,NNE,8.1,-,N/A,,Unknown,30,2012-11-04 02:52:00
10:52 PM,35.1,28.9,78,30.22,-9999.0,ENE,8.1,-,N/A,,Unknown,60,2012-11-04 03:52:00
11:52 PM,34.0,28.9,82,30.22,-9999.0,East,5.8,-,N/A,,Unknown,80,2012-11-04 04:52:00